Regional Weather Roundup
Issued by NWS

Home | Current Version | Previous Version | Text Only | Print | Product List | Glossary Off
Versions: 1 2 3 4 5 6 7 8 9 10 11 12 13 14 15 16 17 18 19 20 21 22 23 24 25 26 27 28 29 30 31 32 33 34 35 36 37 38 39 40 41 42 43 44 45 46 47 48 49 50

000
ASUS43 KMKX 291721
RWRWI

WISCONSIN REGIONAL WEATHER ROUNDUP
NATIONAL WEATHER SERVICE MILWAUKEE/SULLIVAN WI
1200 PM CDT MON AUG 29 2016

NOTE: "FAIR" INDICATES FEW OR NO CLOUDS BELOW 12,000 FEET WITH NO
SIGNIFICANT WEATHER AND/OR OBSTRUCTIONS TO VISIBILITY.

WIZ001-002-006>008-014>016-023>028-291800-
NORTHWEST WISCONSIN

CITY           SKY/WX    TMP DP  RH WIND       PRES   REMARKS
SUPERIOR ARPT  PTSUNNY   73  65  74 W7        30.12S
ASHLAND        PTSUNNY   77  66  68 S9        30.14F
HAYWARD        MOSUNNY   74  63  68 VRB3      30.17R
SIREN          MOSUNNY   80  64  58 S8        30.13R HX  82
CUMBERLAND     MOSUNNY   77  64  65 S13       30.16F
RICE LAKE      MOSUNNY   79  67  66 S15       30.18F HX  81
CHETEK         NOT AVBL
LADYSMITH      CLOUDY    79  68  69 S14G21    30.20F HX  81
EAU CLAIRE     CLOUDY    77  69  76 S10       30.21F
MENOMONIE      PTSUNNY   78  69  73 S13       30.20F HX  80
NEW RICHMOND   CLOUDY    79  67  65 S16       30.17F HX  81
OSCEOLA        SUNNY     80  69  70 S21G29    30.16F HX  83
$$

WIZ003>005-009-010-017-018-291800-
NORTH CENTRAL WISCONSIN

CITY           SKY/WX    TMP DP  RH WIND       PRES   REMARKS
MANITOWISH WTR NOT AVBL
ARBOR VITAE    PTSUNNY   77  65  67 SW9       30.21R
WOODRUFF       PTSUNNY   77  65  67 SW9       30.21R
RHINELANDER    PTSUNNY   77  66  68 S15       30.21F
EAGLE RIVER    MOSUNNY   75  62  64 SW5       30.22R
LAND O LAKES   PTSUNNY   76  63  64 S6        30.22S
PHILLIPS       CLOUDY    76  68  74 S6        30.19F
TOMAHAWK       MOSUNNY   76  66  71 S5        30.23F
MEDFORD        CLOUDY    76  71  85 S7        30.24F
MERRILL        MOSUNNY   78  69  72 SW9       30.23F HX  81
$$

WIZ029-030-035-036-043>047-291800-
CENTRAL WISCONSIN

CITY           SKY/WX    TMP DP  RH WIND       PRES   REMARKS
WAUSAU         PTSUNNY   75  67  76 SW7       30.24F
MOSINEE        CLOUDY    75  70  83 S7        30.27F
MARSHFIELD     CLOUDY    76  68  76 NW3       30.26F
STEVENS POINT  CLOUDY    76  67  74 SW7       30.26F
WAUPACA        PTSUNNY   82  70  68 S7        30.26F HX  85
WAUTOMA        MOSUNNY   80  71  74 VRB7      30.26F HX  84
WISC RAPIDS    CLOUDY    79  70  74 S6        30.27F HX  82
CAMP DOUGLAS   PTSUNNY   77  72  83 VRB1      30.25F
$$

WIZ011>013-019>022-031-037>040-048>050-291800-
NORTHEAST WISCONSIN

CITY           SKY/WX    TMP DP  RH WIND       PRES   REMARKS
ANTIGO         CLOUDY    74  68  82 SW6       30.25F
SHAWANO        SUNNY     81  69  65 SW5       30.24F HX  84
OCONTO         NOT AVBL
STURGEON BAY   MOSUNNY   78  68  71 S10       30.25F HX  80
GREEN BAY      SUNNY     79  72  79 MISG      30.24F HX  82
MANITOWOC      SUNNY     75  67  76 S7        30.28S
APPLETON       PTSUNNY   79  66  65 SW8       30.26S HX  81
CLINTONVILLE   CLOUDY    81  66  61 SW5       30.24F HX  83
OSHKOSH        CLOUDY    76  68  76 NE5       30.27S
$$

WIZ032>034-041-042-053>061-291800-
SOUTHWEST WISCONSIN

CITY           SKY/WX    TMP DP  RH WIND       PRES   REMARKS
LA CROSSE      MOSUNNY   84  71  65 CALM      30.23F HX  89
SPARTA         MOSUNNY   81  69  66 NW3       30.25F HX  84
VIROQUA        MOSUNNY   80  70  71 CALM      30.27F HX  83
BOSCOBEL       LGT RAIN  76  70  82 NE6       30.27R
PRAIRIE DU CHI LGT RAIN  74  70  85 CALM      30.25F
PLATTEVILLE    CLOUDY    74  73  95 NE3       30.28S
$$

WIZ056-057-062-063-064-067-068-291800-
SOUTH CENTRAL WISCONSIN

CITY           SKY/WX    TMP DP  RH WIND       PRES   REMARKS
REEDSBURG      NOT AVBL
BARABOO/DELLS  CLOUDY    78  68  70 CALM      30.27F HX  80
LONE ROCK      CLOUDY    75  70  84 CALM      30.28S
MINERAL POINT  CLOUDY    75  72  88 SE3       30.29R
MADISON        CLOUDY    78  69  73 CALM      30.27R HX  80
MIDDLETON      CLOUDY    78  70  76 CALM      30.29R HX  80
WATERTOWN      MOSUNNY   80  71  73 SE3       30.27S HX  83
MONROE         CLOUDY    79  70  73 SE3       30.27F HX  81
JANESVILLE     PTSUNNY   82  70  65 SE6       30.26R HX  86
$$

WIZ051-052-058>065-066-070>072-291800-
SOUTHEAST WISCONSIN

CITY           SKY/WX    TMP DP  RH WIND       PRES   REMARKS
MILWAUKEE      MOSUNNY   81  66  60 E7        30.28R HX  83
WAUKESHA       MOSUNNY   79  66  65 SE5       30.29S HX  81
MILWAUKEE/TIMM SUNNY     79  61  53 E5        30.28S HX  80
RACINE         SUNNY     80  67  64 E6        30.29S HX  82
BURLINGTON     CLOUDY    79  68  69 E3        30.27S HX  81
KENOSHA        MOSUNNY   80  68  66 SE6       30.28R HX  83
FOND DU LAC    MOSUNNY   83  70  64 N5        30.27S HX  87
SHEBOYGAN      CLOUDY    78  68  71 SE7       30.28R HX  80
WEST BEND      CLOUDY    81  66  61 CALM      30.28S HX  83
JUNEAU         SUNNY     79  69  70 SE6       30.29S HX  82
$$

LSZ147-162-291800-
LAKE SUPERIOR

STATION/POSITION TIME  TEMP    WIND        PRES    WAVE
                       AIR SEA DIR/SP/G            HT/PER
                 (UTC) (F)     (DEG/KT/KT) (MB)    (FT/S)
W MID LAKE BUOY  1650   67 68  230/  4/  4 1019.8F   2/ 4
DEVILS ISLAND    1700   69     210/  3/  4 1020.5S
PORT WING        1540   70     230/  5/  7 1020.3S
SAXON HARBOR     1600   74     210/  4/  5 1020.3F
$$

LMZ867-665-643>646-291800-
LAKE MICHIGAN

STATION/POSITION TIME  TEMP    WIND        PRES    WAVE
                       AIR SEA DIR/SP/G            HT/PER
                 (UTC) (F)     (DEG/KT/KT) (MB)    (FT/S)
CHAMBERS ISLAND  1600   74     120/  4/  9 1024.0
N MID LAKE BUOY  1650   70 71  170/ 10/ 12 1023.9F   1/ 3
NORTHPORT PIER   1600   71     140/  9/ 13 1024.4F
SISTER BAY       1607   79     150/  9/ 12   N/A
KEWAUNEE LAKESHO 1600   72     110/  3/  4 1024.5F
SHEBOYGAN LAKESH 1700   67      80/  2/  2 1024.8F
PORT WASHINGTON  1640   72      50/  3/  4 1025.7R
ATWATER BUOY     1700   67     330/  2/  2   N/A
MILWAUKEE LAKESH 1710   68      50/  3/  3   N/A
S MID LAKE BUOY  1650   75 75  130/  4/  6 1024.5R   0
KENOSHA   LAKESH 1700   71      30/  4/  4 1024.4F
$$

TC  - TEMPERATURE IN CELSIUS
VSB - VISIBILITY IN STATUTE MILES
WCI - WIND CHILL INDEX
HX  - HEAT INDEX




USA.gov is the U.S. government's official web portal to all federal, state and local government web resources and services.